JZA8062 CYVR-CYKA

Flight info

Callsign JZA8062
Flight time N/A
Altitude 21000
Route JANEK DCT YAROW
Aircraft E75S/M-SDE3GILORVW/S

Departure

Time N/A
Airport Vancouver International Airport (CYVR)

Arrival

Time 2026-04-26 12:08
Airport Kamloops John Moose Fulton Field Regional Airport (CYKA)
Time Latitude Longitude Altitude Speed Heading
2026-04-26 11:42 49.59011 -122.58066 21023 ft 319 kts 30°
2026-04-26 11:43 49.60886 -122.56159 21013 ft 325 kts 31°
2026-04-26 11:43 49.62771 -122.54240 21001 ft 325 kts 31°
2026-04-26 11:43 49.64673 -122.52303 20997 ft 327 kts 31°
2026-04-26 11:43 49.66536 -122.50405 20994 ft 326 kts 31°
2026-04-26 11:44 49.68361 -122.48264 21002 ft 329 kts 38°
2026-04-26 11:44 49.70044 -122.45947 21008 ft 327 kts 38°
2026-04-26 11:44 49.71742 -122.43604 21001 ft 328 kts 38°
2026-04-26 11:44 49.73426 -122.41276 21006 ft 325 kts 38°
2026-04-26 11:45 49.75113 -122.38945 21016 ft 327 kts 38°
2026-04-26 11:45 49.76819 -122.36584 21024 ft 327 kts 38°
2026-04-26 11:45 49.78521 -122.34224 21024 ft 327 kts 38°
2026-04-26 11:45 49.80212 -122.31879 21033 ft 326 kts 39°
2026-04-26 11:46 49.81888 -122.29551 21026 ft 327 kts 38°
2026-04-26 11:46 49.83575 -122.27207 21032 ft 328 kts 39°
2026-04-26 11:46 49.85274 -122.24844 21030 ft 328 kts 38°
2026-04-26 11:46 49.86946 -122.22514 21014 ft 326 kts 38°
2026-04-26 11:47 49.88635 -122.20161 21007 ft 328 kts 39°
2026-04-26 11:47 49.90310 -122.17823 21000 ft 324 kts 38°
2026-04-26 11:47 49.91991 -122.15476 21005 ft 326 kts 39°
2026-04-26 11:47 49.93680 -122.13115 21005 ft 325 kts 39°
2026-04-26 11:48 49.95358 -122.10766 21005 ft 328 kts 38°
2026-04-26 11:48 49.97066 -122.08374 21014 ft 329 kts 39°
2026-04-26 11:48 49.98753 -122.06009 21016 ft 327 kts 39°
2026-04-26 11:48 50.00443 -122.03636 21009 ft 326 kts 39°
2026-04-26 11:49 50.02132 -122.01263 21012 ft 327 kts 39°
2026-04-26 11:49 50.03820 -121.98889 21009 ft 327 kts 39°
2026-04-26 11:49 50.05494 -121.96532 21005 ft 326 kts 38°
2026-04-26 11:49 50.07172 -121.94169 21025 ft 327 kts 39°
2026-04-26 11:50 50.08863 -121.91784 21013 ft 325 kts 39°
2026-04-26 11:50 50.10554 -121.89396 21018 ft 327 kts 39°
2026-04-26 11:50 50.12223 -121.87037 21017 ft 327 kts 39°
2026-04-26 11:50 50.13921 -121.84636 20804 ft 332 kts 39°
2026-04-26 11:51 50.15600 -121.82257 20139 ft 332 kts 39°
2026-04-26 11:51 50.17289 -121.79863 19494 ft 329 kts 39°
2026-04-26 11:51 50.18975 -121.77471 18842 ft 325 kts 39°
2026-04-26 11:51 50.20632 -121.75117 18197 ft 321 kts 39°
2026-04-26 11:52 50.22258 -121.72804 17565 ft 317 kts 39°
2026-04-26 11:52 50.23878 -121.70498 16928 ft 314 kts 39°
2026-04-26 11:52 50.25477 -121.68221 16295 ft 312 kts 38°
2026-04-26 11:52 50.27050 -121.65978 15675 ft 309 kts 38°
2026-04-26 11:53 50.28629 -121.63725 15044 ft 307 kts 38°
2026-04-26 11:53 50.30199 -121.61483 14405 ft 305 kts 38°
2026-04-26 11:53 50.31746 -121.59270 13781 ft 303 kts 38°
2026-04-26 11:54 50.34692 -121.55053 12559 ft 301 kts 38°
2026-04-26 11:54 50.36243 -121.52830 11919 ft 300 kts 38°
2026-04-26 11:54 50.37760 -121.50654 11288 ft 300 kts 38°
2026-04-26 11:54 50.39295 -121.48448 10637 ft 299 kts 38°
2026-04-26 11:55 50.40820 -121.46256 9991 ft 297 kts 38°
2026-04-26 11:55 50.42322 -121.44096 9341 ft 296 kts 39°
2026-04-26 11:55 50.43829 -121.41924 9035 ft 283 kts 39°
2026-04-26 11:55 50.45212 -121.39926 8995 ft 264 kts 38°
2026-04-26 11:56 50.46437 -121.37920 8983 ft 247 kts 46°
2026-04-26 11:56 50.47471 -121.35882 8987 ft 235 kts 46°
2026-04-26 11:56 50.48493 -121.33864 9018 ft 238 kts 47°
2026-04-26 11:56 50.49522 -121.31827 9022 ft 240 kts 47°
2026-04-26 11:57 50.50555 -121.29779 8972 ft 240 kts 47°
2026-04-26 11:57 50.51593 -121.27718 8980 ft 240 kts 47°
2026-04-26 11:57 50.52633 -121.25648 8983 ft 239 kts 46°
2026-04-26 11:57 50.53657 -121.23611 8995 ft 240 kts 47°
2026-04-26 11:58 50.54690 -121.21554 8992 ft 241 kts 46°
2026-04-26 11:58 50.55732 -121.19479 8979 ft 240 kts 47°
2026-04-26 11:58 50.56750 -121.17448 8983 ft 239 kts 46°
2026-04-26 11:58 50.57785 -121.15382 8970 ft 239 kts 47°
2026-04-26 11:59 50.58810 -121.13332 8974 ft 239 kts 47°
2026-04-26 11:59 50.59838 -121.11277 8970 ft 239 kts 47°
2026-04-26 11:59 50.60858 -121.09235 8968 ft 240 kts 46°
2026-04-26 11:59 50.61887 -121.07175 8969 ft 238 kts 46°
2026-04-26 12:00 50.62906 -121.05133 8953 ft 240 kts 46°
2026-04-26 12:00 50.63940 -121.03060 8704 ft 242 kts 46°
2026-04-26 12:00 50.64973 -121.00984 8440 ft 239 kts 46°
2026-04-26 12:00 50.66143 -120.99204 8165 ft 229 kts 22°
2026-04-26 12:01 50.67579 -120.98224 7941 ft 227 kts 18°
2026-04-26 12:01 50.69038 -120.97290 7692 ft 226 kts 18°
2026-04-26 12:01 50.70499 -120.96362 7421 ft 225 kts 18°
2026-04-26 12:01 50.71952 -120.95444 7155 ft 224 kts 18°
2026-04-26 12:02 50.73392 -120.94535 6887 ft 222 kts 17°
2026-04-26 12:02 50.74822 -120.93636 6623 ft 222 kts 18°
2026-04-26 12:02 50.76181 -120.92526 6356 ft 229 kts 40°
2026-04-26 12:02 50.76888 -120.90293 6131 ft 236 kts 81°
2026-04-26 12:03 50.76659 -120.87689 5928 ft 240 kts 99°
2026-04-26 12:03 50.76271 -120.85148 5674 ft 239 kts 99°
2026-04-26 12:03 50.75890 -120.82600 5410 ft 237 kts 99°
2026-04-26 12:03 50.75520 -120.80094 5149 ft 234 kts 99°
2026-04-26 12:04 50.75155 -120.77618 4886 ft 231 kts 100°
2026-04-26 12:04 50.74794 -120.75166 4622 ft 227 kts 100°
2026-04-26 12:04 50.74444 -120.72791 4401 ft 220 kts 101°
2026-04-26 12:04 50.74104 -120.70484 4163 ft 214 kts 101°
2026-04-26 12:05 50.73771 -120.68221 3893 ft 209 kts 101°
2026-04-26 12:05 50.73445 -120.66072 3716 ft 199 kts 104°
2026-04-26 12:05 50.73083 -120.63972 3468 ft 194 kts 102°
2026-04-26 12:05 50.72774 -120.61935 3211 ft 189 kts 101°
2026-04-26 12:06 50.72486 -120.59962 3012 ft 177 kts 101°
2026-04-26 12:06 50.72229 -120.58184 2741 ft 162 kts 101°
2026-04-26 12:06 50.71981 -120.56470 2486 ft 157 kts 102°
2026-04-26 12:06 50.71738 -120.54802 2264 ft 158 kts 102°
2026-04-26 12:07 50.71496 -120.53117 2034 ft 155 kts 102°
2026-04-26 12:07 50.71270 -120.51558 1806 ft 142 kts 102°
2026-04-26 12:07 50.71056 -120.50051 1589 ft 139 kts 100°
2026-04-26 12:07 50.70894 -120.48565 1425 ft 137 kts 99°
2026-04-26 12:08 50.70659 -120.47093 1269 ft 137 kts 105°
2026-04-26 12:08 50.70429 -120.45666 1093 ft 125 kts 103°
2026-04-26 12:08 50.70308 -120.44948 1093 ft 24 kts 97°
2026-04-26 12:08 50.70276 -120.44670 1093 ft 26 kts 103°
2026-04-26 12:09 50.70242 -120.44429 1093 ft 16 kts 77°
2026-04-26 12:09 50.70343 -120.44366 1093 ft 8 kts 12°
2026-04-26 12:09 50.70394 -120.44319 1093 ft 8 kts 73°
2026-04-26 12:09 50.70399 -120.44209 1093 ft 11 kts 66°
2026-04-26 12:10 50.70416 -120.44176 1093 ft 1 kts 351°
2026-04-26 12:10 50.70425 -120.44181 1093 ft 2 kts 341°
2026-04-26 12:10 50.70449 -120.44179 1093 ft 3 kts 10°
2026-04-26 12:10 50.70457 -120.44177 1093 ft 0 kts 11°